TimePDT,TemperatureF,Dew PointF,Humidity,Sea Level PressureIn,VisibilityMPH,Wind Direction,Wind SpeedMPH,Gust SpeedMPH,PrecipitationIn,Events,Conditions,WindDirDegrees,DateUTC
12:54 AM,52.0,48.0,86,30.05,9.0,South,4.6,-,N/A,,Clear,190,2013-06-14 07:54:00
1:54 AM,52.0,48.0,86,30.02,9.0,South,3.5,-,N/A,,Clear,190,2013-06-14 08:54:00
2:54 AM,50.0,45.0,83,30.01,10.0,ESE,3.5,-,N/A,,Clear,120,2013-06-14 09:54:00
3:06 AM,50.0,44.6,82,29.97,10.0,ESE,3.5,-,N/A,,Partly Cloudy,110,2013-06-14 10:06:00
3:24 AM,50.0,44.6,82,29.96,10.0,Calm,Calm,-,N/A,,Mostly Cloudy,0,2013-06-14 10:24:00
3:54 AM,51.1,46.0,83,29.99,10.0,East,3.5,-,N/A,,Overcast,100,2013-06-14 10:54:00
4:54 AM,51.1,48.9,92,29.99,2.0,Calm,Calm,-,N/A,,Overcast,0,2013-06-14 11:54:00
5:03 AM,51.8,50.0,94,29.95,1.8,Calm,Calm,-,N/A,,Overcast,0,2013-06-14 12:03:00
5:11 AM,51.8,50.0,94,29.95,2.5,Calm,Calm,-,N/A,,Overcast,0,2013-06-14 12:11:00
5:54 AM,51.1,48.9,92,29.99,1.0,East,5.8,-,N/A,,Overcast,100,2013-06-14 12:54:00
6:02 AM,51.8,48.2,88,29.95,0.5,East,5.8,-,N/A,Fog,Fog,100,2013-06-14 13:02:00
6:11 AM,51.8,48.2,88,29.95,0.2,East,5.8,-,N/A,Fog,Fog,100,2013-06-14 13:11:00
6:32 AM,48.2,46.4,93,29.94,1.2,East,8.1,-,N/A,,Mostly Cloudy,100,2013-06-14 13:32:00
6:34 AM,48.2,46.4,93,29.94,3.0,East,6.9,-,N/A,,Mostly Cloudy,100,2013-06-14 13:34:00
6:42 AM,50.0,48.2,94,29.94,10.0,ESE,4.6,-,N/A,,Scattered Clouds,110,2013-06-14 13:42:00
6:54 AM,51.1,48.0,89,29.98,10.0,Calm,Calm,-,N/A,,Partly Cloudy,0,2013-06-14 13:54:00
7:54 AM,55.9,48.0,75,29.98,10.0,Calm,Calm,-,N/A,,Clear,0,2013-06-14 14:54:00
8:54 AM,60.1,50.0,69,29.99,10.0,Variable,3.5,-,N/A,,Clear,0,2013-06-14 15:54:00
9:54 AM,62.1,51.1,67,29.99,9.0,WNW,5.8,-,N/A,,Clear,290,2013-06-14 16:54:00
10:54 AM,60.1,51.1,72,29.99,10.0,NW,5.8,-,N/A,,Clear,310,2013-06-14 17:54:00
11:54 AM,64.0,51.1,63,29.99,10.0,NW,5.8,-,N/A,,Clear,320,2013-06-14 18:54:00
12:54 PM,61.0,51.1,70,29.99,9.0,NW,6.9,-,N/A,,Clear,310,2013-06-14 19:54:00
1:54 PM,63.0,51.1,65,29.97,9.0,NW,9.2,-,N/A,,Clear,320,2013-06-14 20:54:00
2:54 PM,63.0,51.1,65,29.96,10.0,NW,9.2,-,N/A,,Clear,310,2013-06-14 21:54:00
3:54 PM,64.9,50.0,58,29.95,10.0,WNW,9.2,-,N/A,,Clear,290,2013-06-14 22:54:00
4:54 PM,64.9,50.0,58,29.94,10.0,NW,8.1,-,N/A,,Clear,310,2013-06-14 23:54:00
5:54 PM,64.9,48.0,54,29.93,10.0,WNW,9.2,-,N/A,,Clear,300,2013-06-15 00:54:00
6:54 PM,62.1,48.9,62,29.93,10.0,West,8.1,-,N/A,,Clear,270,2013-06-15 01:54:00
7:54 PM,59.0,48.9,69,29.94,10.0,West,6.9,-,N/A,,Clear,270,2013-06-15 02:54:00
8:54 PM,55.0,48.9,80,29.94,9.0,SSW,8.1,-,N/A,,Clear,210,2013-06-15 03:54:00
9:54 PM,55.0,48.9,80,29.96,9.0,SSW,8.1,-,N/A,,Mostly Cloudy,210,2013-06-15 04:54:00
10:33 PM,53.6,48.2,82,29.92,9.0,SW,9.2,-,N/A,,Mostly Cloudy,230,2013-06-15 05:33:00
10:54 PM,54.0,48.9,83,29.95,9.0,SW,9.2,-,N/A,,Overcast,220,2013-06-15 05:54:00
11:54 PM,53.1,48.9,86,29.94,9.0,SW,9.2,-,N/A,,Overcast,230,2013-06-15 06:54:00